Regional Weather Roundup
Issued by NWS

Home | Current Version | Previous Version | Graphics & Text | Print | Product List | Glossary On
Versions: 1 2 3 4 5 6 7 8 9 10 11 12 13 14 15 16 17 18 19 20 21 22 23 24 25 26 27
000
ASUS45 KBOI 220310
RWRID

IDAHO REGIONAL WEATHER ROUNDUP
NATIONAL WEATHER SERVICE BOISE ID
900 PM MDT WED JUN 21 2017

NOTE: "FAIR" INDICATES FEW OR NO CLOUDS BELOW 12000 FEET
WITH NO SIGNIFICANT WEATHER AND/OR OBSTRUCTIONS TO VISIBILITY

IDZ012-014-220400-
SOUTHWEST IDAHO


CITY           SKY/WX    TMP DP  RH WIND       PRES   REMARKS
BOISE          PTCLDY    79  38  22 NW16      29.96R
CALDWELL       PTCLDY    77  41  27 NW13      29.96R
MOUNTAIN HOME  CLEAR     80  33  18 NW14      29.96R
$$

IDZ016-017-220400-
SOUTHCENTRAL IDAHO


CITY           SKY/WX    TMP DP  RH WIND       PRES   REMARKS
BURLEY         CLEAR     73  34  23 W14       29.95R
JEROME         CLEAR     73  36  25 SW14G22   29.97R
TWIN FALLS     CLEAR     72  28  19 SW14      29.98S
$$

IDZ019>023-220400-
SOUTHEAST IDAHO


CITY           SKY/WX    TMP DP  RH WIND       PRES   REMARKS
IDAHO FALLS    CLEAR     74  43  32 S20       29.92R
POCATELLO      CLOUDY    73  38  27 SW16      29.94S
REXBURG        CLEAR     74  43  32 S14G24    29.90S
$$

IDZ006-010-011-018-031-032-220400-
CENTRAL IDAHO MOUNTAINS


CITY           SKY/WX    TMP DP  RH WIND       PRES   REMARKS
MCCALL         CLEAR     68  27  21 NW7       30.10R
HAILEY         CLEAR     73  37  27 NW5       29.99R
STANLEY          N/A     65  38  36 N5        30.14R
SALMON         CLEAR    N/A N/A N/A MISG        N/A
CHALLIS        CLEAR     75  26  16 W14       29.99R
$$

IDZ002-004-006-007-026-220400-
NORTHERN IDAHO


CITY           SKY/WX    TMP DP  RH WIND       PRES   REMARKS
LEWISTON       CLEAR     76  30  18 W12       30.02S
LOWELL           N/A     65  47  52 CALM      30.04R
COEUR D`ALENE  CLEAR     70  36  28 W6        30.01F
MULLAN PASS    CLEAR     52  25  35 VRB3      30.14S
$$




USA.gov is the U.S. government's official web portal to all federal, state and local government web resources and services.